Regional Weather Roundup
Issued by NWS Pendleton, OR

Home | Current Version | Previous Version | Text Only | Print | Product List | Glossary On
Versions: 1 2 3 4 5 6 7 8 9 10 11 12 13 14 15 16 17 18 19 20 21 22 23 24 25 26 27 28 29 30 31 32 33 34 35 36 37 38 39 40 41 42 43 44 45 46 47 48 49 50
000
ASUS46 KPDT 180710
RWRPDT
PENDLETON REGIONAL WEATHER ROUNDUP
NATIONAL WEATHER SERVICE PENDLETON OREGON
1100 PM PST FRI NOV 17 2017

NOTE: FAIR INDICATES FEW OR NO CLOUDS BELOW 12,000 FEET WITH NO
SIGNIFICANT WEATHER AND/OR OBSTRUCTIONS TO VISIBILITY.

# INDICATES UNOFFICIAL STATION AND DATA

WAZ520-180810-
EAST SLOPES OF WASHINGTON CASCADES

CITY            SKY/WX      TMP DP  RH  WIND    PRES   REMARKS
#BULLFROG       N/A         35  35  100 CALM    N/A
#CLE ELUM HS    N/A         37  33  85  CALM    30.18R
#CLE ELUM LAKE  N/A         33  31  92  CALM    30.20R
#EASTON DOT     N/A         34  33  96  CALM    N/A
#ELK HTS DOT    N/A         35  35  100 SW1     N/A
#GLENWOOD       N/A         36  32  85  CALM    30.33R
#NELSON 3SW     N/A         34  31  89  CALM    30.50R
#NILE           N/A         28  26  92  CALM    29.58R
#TEANAWAY 4NE   N/A         35  32  89  CALM    N/A
#TROUT LAKE 1NE N/A         32  31  96  CALM    30.35S
#TROUT LAKE 1E  N/A         31  30  96  CALM    30.32R
$$

WAZ521-180810-
SIMCOE HIGHLANDS

CITY            SKY/WX      TMP DP  RH  WIND    PRES   REMARKS
#BICKLETON HS   N/A         N/A N/A N/A CALM    30.27R
#CENTERVILLE 1SWN/A         39  34  82  W3      30.31R
#GOLDENDALE 1NE N/A         40  29  64  CALM    N/A
#GOLDENDALE 4W  N/A         39  27  62  W5      30.32S
#GOODNOE HILLS  N/A         41  37  86  NW7     N/A
#LYLE 6NE       N/A         40  37  89  SW1     30.35S
#PITT 4SE       N/A         36  34  92  W7      30.37S
$$

WAZ026-180810-
KITTITAS VALLEY

CITY            SKY/WX      TMP DP  RH  WIND    PRES   REMARKS
ELLENSBURG AP   MOCLDY      36  30  79  W5      30.25R
#ELLENSBURG CWU N/A         37  32  82  W2      30.24R
#ELLENSBURG 3NE N/A         36  31  82  CALM    28.31R
#ELLENSBURG 1E  N/A         38  32  79  CALM    30.35R
#KITTITAS 3S    N/A         34  30  85  S3      30.30R
#MANASTASH RDG  N/A         34  34  100 NE1     N/A
#RYEGRASS DOT   N/A         34  29  82  W18     N/A    WCI 23
$$

WAZ027-180810-
YAKIMA VALLEY

CITY            SKY/WX      TMP DP  RH  WIND    PRES   REMARKS
SUNNYSIDE AP    CLOUDY      35  32  89  N3      30.30R
YAKIMA AIRPORT  CLOUDY      36  27  69  W5      30.29R
YAKIMA-VAGABOND PTCLDY      33  27  78  W5      30.26R
#DONALD 2NE     N/A         40  16  37  N3      29.12R
#GRANDVIEW      N/A         38  30  73  CALM    30.25R
#MABTON         N/A         39  32  76  CALM    30.29R
#MOXEE 2E       N/A         44  N/A N/A N3      30.15R
#NACHES 2SW     N/A         35  29  78  CALM    30.20S
#OUTLOOK DOT    N/A         39  33  79  CALM    30.26R
#PARKER DOT     N/A         41  30  65  CALM    30.28R
#TERRACE HTS    N/A         38  29  70  CALM    30.28R
#TOPPENISH      N/A         40  33  76  CALM    30.22R
#I82 S UMTANUM RN/A         33  25  72  N5      N/A
#UNION GAP DOT  N/A         38  30  73  CALM    30.31R
#W YAKIMA       N/A         38  29  70  CALM    30.31R
#WHITE SWAN 5E  N/A         37  31  79  CALM    30.30R
#WILEY CITY 3W  N/A         34  24  66  CALM    30.23R
#ZILLAH DOT     N/A         40  32  73  NE5     N/A
$$

WAZ028-180810-
LOWER COLUMBIA BASIN...WASHINGTON

CITY            SKY/WX      TMP DP  RH  WIND    PRES   REMARKS
PASCO           CLOUDY      43  35  73  SW10    30.32R
PROSSER AWOS    N/A         37  32  82  CALM    30.33R
RICHLAND AWOS   CLOUDY      44  36  73  SW6     30.31R
#BENTON CITY    N/A         40  33  76  CALM    30.22R
#CONNELL 5N     N/A         34  32  92  SW1     30.31R
#CONNELL 5NW    N/A         36  33  89  CALM    30.26R
#ELTOPIA 6NW    N/A         39  35  85  SW1     29.24R
#KAHLOTUS       N/A         39  34  82  W15G24  30.29R WCI 31
#KENNEWICK 3S   N/A         41  36  82  S7      30.32R
#PATERSON       N/A         44  38  79  W6      30.31R
#PROSSER DOT    N/A         36  34  92  CALM    30.30R
#SAGEMOOR 2W    N/A         39  35  85  SW7     30.18R
#TOUCHET 2S     N/A         45  34  65  SW5     30.31S
#WEST PASCO     N/A         46  33  60  CALM    29.84S
$$

WAZ029-180810-
FOOTHILLS OF THE BLUES...WASHINGTON

CITY            SKY/WX      TMP DP  RH  WIND    PRES   REMARKS
WALLA WALLA AP  MOCLDY      42  33  70  S8      30.31R
#CLYDE 6NW      N/A         38  34  85  S9      30.30S
#DAYTON SCHOOL  N/A         41  27  57  S6      30.29R
#DELANEY DOT    N/A         42  32  67  SE10    30.31R
#LOWDEN 2SE     N/A         39  33  79  CALM    30.30R
#PLEASANT VIEW 1N/A         35  32  89  S9      30.36R
#PRESCOTT       N/A         38  34  85  CALM    30.32S
#WHITMAN COLLEGEN/A         43  33  67  SE3     30.31R
#WAITSBURG 5S   N/A         39  33  79  S7      30.43R
#WAITSBURG 6SSE N/A         41  31  67  SE5     30.32S
#WAITSBURG 8N   N/A         37  N/A N/A S10     30.33R
#WALLA WALLA 5E N/A         44  35  70  S15     N/A    WCI 37
#WHITMAN MISSIONN/A         44  34  68  CALM    30.35R
$$

WAZ030-180810-
BLUE MOUNTAINS...WASHINGTON

CITY            SKY/WX      TMP DP  RH  WIND    PRES   REMARKS
#DIXIE 5SE      N/A         38  30  73  W18G26  30.19S WCI 28
$$

ORZ009-041-WAZ024-180810-
COLUMBIA RIVER GORGE

CITY            SKY/WX      TMP DP  RH  WIND    PRES   REMARKS
HOOD RIVER AP   CLOUDY      39  36  89  CALM    30.35R
THE DALLES AP   MOCLDY      43  37  79  S7      30.35R
#ARLINGTON AIRPON/A         44  37  76  W7      30.36R
#ARLINGTON HS   N/A         46  36  68  W6      30.26R
#CELILO DOT     N/A         47  36  65  SW2     N/A
#LYLE           N/A         46  41  83  NW2     30.37R
#MARYHILL       N/A         43  38  82  N5      N/A
#MURDOCK        N/A         45  40  82  E1      30.32R
#RUFUS DOT      N/A         47  N/A N/A NW3     N/A
#SMITHVILLE     N/A         45  40  82  N2      30.29S

$$

ORZ510-180810-
NORTH CENTRAL OREGON

CITY            SKY/WX      TMP DP  RH  WIND    PRES   REMARKS
#ANTELOPE       N/A         28  24  85  NE2     30.27S
#CHENOWITH 1W   N/A         38  36  92  W8      N/A
#COW CYN RST AREN/A         35  N/A N/A SW5     N/A
#DUFUR          N/A         35  31  85  CALM    30.33R
#DUFUR 9E       N/A         39  33  79  S8      30.40S
#GRASS VALLEY 1SN/A         33  29  85  CALM    30.29S
#KENT DOT       N/A         32  23  69  S8      N/A
#MAUPIN SCHOOL  N/A         41  31  67  CALM    30.37R
#MORO SCHOOL    N/A         38  36  92  S3      30.29S
#SHANIKO 5WSW   N/A         32  -40  3  S10     N/A
#SHANIKO 4NW    N/A         31  25  78  S12     30.27R WCI 22
#TYGH VALLEY 2NEN/A         36  31  82  CALM    30.34R
#WAPANITIA AIRPON/A         38  31  76  SW3     30.37R
#WASCO DOT      N/A         42  39  89  CALM    N/A
#WASCO 5NE      N/A         40  27  59  CALM    30.35S
$$

ORZ511-180810-
CENTRAL OREGON

CITY            SKY/WX      TMP DP  RH  WIND    PRES   REMARKS
BEND AIRPORT    CLEAR       30  25  81  E6      30.32R
PRINEVILLE AP   CLEAR       25  21  84  CALM    30.32S
REDMOND AIRPORT CLEAR       24  21  88  N5      30.31R
#ASHWOOD SCHOOL N/A         30  25  81  CALM    30.26S
#BEND 1SW       N/A         29  26  88  CALM    N/A
#BEND-AWBREY    N/A         32  27  82  S8      30.39R
#BEND-KIM LN    N/A         26  21  81  SW5     30.34R
#CULVER         N/A         32  25  75  CALM    30.24R
#CULVER 8W      N/A         32  23  69  SW1     30.29R
#LAKE BILLY CHINN/A         34  N/A N/A S12     30.38R WCI 25
#MADRAS 4S      N/A         32  -4  20  S8      N/A
#POWELL BUTTE   N/A         36  22  56  S6      30.22S
#PRINEVILLE     N/A         27  24  88  CALM    30.51S
#PRINEVILLE 3N  N/A         25  21  84  E1      30.41S
#WARM SPRINGS   N/A         30  26  85  CALM    30.22S

$$


ORZ509-180810-
EAST SLOPES OF OREGON CASCADES

CITY            SKY/WX      TMP DP  RH  WIND    PRES   REMARKS
#CAMP SHERMAN   N/A         30  25  81  CALM    30.45R
#LA PINE 4NW    N/A         26  22  85  CALM    30.47R
#LAVA BUTTE DOT N/A         28  22  78  SE1     N/A
#SISTERS ODOT   N/A         25  20  81  CALM    N/A
#SISTERS 3N     N/A         26  15  63  CALM    30.29S
#SUNRIVER       N/A         28  26  92  CALM    30.42R
#TUMALO 3W      N/A         31  22  69  SE6     30.27R
#WANOGA BUTTE D N/A         22  21  96  W3      N/A

$$

ORZ044-180810-
LOWER COLUMBIA BASIN...OREGON

CITY            SKY/WX      TMP DP  RH  WIND    PRES   REMARKS
HERMISTON       CLOUDY      44  33  65  SW13    30.32R WCI 38
#BOARDMAN SCHOOLN/A         45  37  73  S8      30.31R
#BOARDMAN 8SW   N/A         40  36  85  SW5     30.35R
#ECHO 8SW       N/A         41  32  70  W3      30.33R
#I-84 EX 198 DOTN/A         41  30  65  NE9     N/A
#IONE SCHOOL    N/A         43  29  57  CALM    30.36S
#UMATILLA       N/A         42  33  70  CALM    30.27R
$$

ORZ507-180810-
NORTHERN FOOTHILLS OF THE BLUES

CITY            SKY/WX      TMP DP  RH  WIND    PRES   REMARKS
PENDLETON AIRPT MOCLDY      39  29  67  S8      30.31R
#ADAMS 3WNW     N/A         36  30  79  SW7     30.35R
#ATHENA         N/A         40  31  70  S6      30.38R
#CAYUSE         N/A         42  31  65  SW5     30.34S
#HELIX SCHOOL   N/A         38  31  76  N12     30.35R WCI 30
#HELIX 3N       N/A         39  32  76  SW15    30.24S WCI 31
#HOLDMAN 5SE    N/A         38  32  79  CALM    30.29R
#HOLDMAN 6E     N/A         37  32  82  SE6     30.14R
#M-F GROVE ELEM N/A         42  29  60  CALM    30.27S
#M-FREEWATER 5SEN/A         43  30  60  CALM    30.30R
#PENDLETON DNTN N/A         36  25  64  CALM    30.31R
#PDT AQUATIC CTRN/A         36  26  67  CALM    30.10S
#PDT SUNRIDGE   N/A         38  30  73  S3      30.34R
#PENDLETON 6SE  N/A         42  32  67  SW8     30.32R
#PENDLETON 7NW  N/A         39  30  70  SW2     30.39F
#PILOT ROCK 1S  N/A         39  25  57  S5      30.31S
#PILOT ROCK     N/A         37  28  70  CALM    30.32R
#TUTUILLA       N/A         40  31  70  CALM    30.38R
#UMAPINE 2E     N/A         42  33  70  S2      30.30R

$$

ORZ508-180810-
SOUTHERN FOOTHILLS OF THE BLUES

CITY            SKY/WX      TMP DP  RH  WIND    PRES   REMARKS
LEXINGTON       MOCLDY      37  30  75  SE6     30.35R
#AJAX           N/A         39  24  54  NW8     30.43R
#CONDON 5W      N/A         33  26  75  SW6     30.25R
#HEPPNER EOC    N/A         39  27  62  SW2     30.29R
#HEPPNER 4NE    N/A         36  28  72  SW2     30.36R
#LEXINGTON 2SE  N/A         38  29  70  CALM    30.29R
#MIKKALO        N/A         38  29  70  SE1     30.40R
#OLEX 4N        N/A         38  33  82  S5      30.30R
#RUGGS 5NE      N/A         34  25  69  S3      30.46S
#RUGGS 2SW      N/A         34  26  72  SW5     30.38S

$$

ORZ502-503-180810-
BLUE MOUNTAINS

CITY            SKY/WX      TMP DP  RH  WIND    PRES   REMARKS
MEACHAM         CLOUDY      32  27  82  CALM    30.27S
#BATTLE MTN DOT N/A         31  20  63  CALM    N/A
#GRANITE        N/A         28  19  68  SW1     30.33R
#GREENHORN 9SW  N/A         29  25  85  CALM    30.25R
#LADD CYN SMT   N/A         34  21  58  E3      N/A
#LADD CREEK ODOTN/A         34  24  66  SW1     N/A
#LONG CREEK HS  N/A         29  26  88  SW1     30.31R
#N POWDER DOT   N/A         28  24  85  SE2     N/A
#PIKES PEAK     N/A         35  27  72  CALM    27.99S
#TOLLGATE       N/A         27  26  96  W3      30.04S
#TROY SCHOOL    N/A         44  32  62  CALM    30.20R
#UKIAH          N/A         27  24  88  N1      30.32R
#WESTON 4E      N/A         35  29  78  S6      30.34R
$$

ORZ505-180810-
JOHN DAY BASIN

CITY            SKY/WX      TMP DP  RH  WIND    PRES   REMARKS
JOHN DAY        CLOUDY      36  22  56  S8      30.32R
#ANTELOPE 9ESE  N/A         34  28  78  CALM    N/A
#DAYVILLE SCHOOLN/A         32  20  61  CALM    30.27S
#MITCHELL 8NW   N/A         34  23  64  S5      30.42S
#MONUMENT HS    N/A         31  24  75  CALM    30.28R
#MT. VERNON 5SE N/A         33  22  63  SW1     30.25R
#WINLOCK        N/A         31  25  78  CALM    30.24F
$$

ORZ506-180810-
OCHOCO AND JOHN DAY HIGHLANDS

CITY            SKY/WX      TMP DP  RH  WIND    PRES   REMARKS
#HORSE RIDGE DO N/A         18  14  84  SW2     N/A
#IZEE 6NW       N/A         22  20  92  CALM    N/A
#PAULINA ODOT   N/A         23  18  81  CALM    N/A
#PINE MTN OBS   N/A         23  19  84  CALM    N/A
#SENECA         N/A         23  N/A N/A W5      N/A
#SENECA 9NW     N/A         24  20  84  CALM    30.43R
$$

ORZ049-180810-
GRANDE RONDE VALLEY

CITY            SKY/WX      TMP DP  RH  WIND    PRES   REMARKS
LA GRANDE       CLOUDY      35  27  72  SW3     30.32R
#COVE SCHOOL    N/A         37  28  70  CALM    30.29S
#COVE 6NW       N/A         38  27  64  CALM    30.37S
#ELGIN 3N       N/A         38  23  54  S1      30.24S
#ELGIN 1E       N/A         39  25  57  CALM    N/A
#IMBLER SCHOOL  N/A         36  27  69  CALM    30.25S
#ISLAND CITY 4N N/A         40  39  96  CALM    30.37R
#LADD CYN DOT   N/A         37  26  64  SE6     N/A
#UNION 1S       N/A         39  27  62  NE7     30.39S
$$

ORZ050-180810-
WALLOWA COUNTY

CITY            SKY/WX      TMP DP  RH  WIND    PRES   REMARKS
JOSEPH AIRPORT  CLOUDY      32  23  69  S3      30.28R
#ENTERPRISE HS  N/A         35  25  66  CALM    30.26R
#IMNAHA SCHOOL  N/A         40  30  67  VRB5    30.31R
#IMNAHA 10S     N/A         35  24  64  S7      30.27R
#JOSEPH         N/A         33  18  53  SE3     30.66R
#JOSEPH 3N      N/A         29  20  69  CALM    30.27R
#JOSEPH 3W      N/A         30  19  63  SW1     30.66R
#LOSTINE        N/A         38  24  57  CALM    30.16R
#LOSTINE 3SE    N/A         38  22  52  N2      30.32R
#MT HOWARD 8000 N/A         16  13  88  CALM    30.11R
#PROMISE 1S     N/A         35  27  72  SW1     30.44R
#WALLOWA SCHOOL N/A         39  25  57  CALM    30.24R



$$



USA.gov is the U.S. government's official web portal to all federal, state and local government web resources and services.